STARLINK-35467 (66343 NORAD) Tracking and Keplerian Element Data

This shows tracking and keplerian element data for the satellite.

Feedback or suggestion? Click here.




ElementValue
Catalog66343
NameSTARLINK-35467
Epoch Orbit806
Epoch Day354.14192163
Epoch Year2025
RAAN303.0546
Inclination43.0014
Eccentricity0.0001182
Argument of Perigee260.2415
Mean Anonmoly99.8309
Mean Motion15.40725766
Decay Rate0.00036446
L11 66343U 25253AA 25354.14192163 .00036446 00000+0 87484-3 0 9991
L22 66343 43.0014 303.0546 0001182 260.2415 99.8309 15.40725766 8064



Live tracking and technical data element details for STARLINK-35467 (NORAD 66343). STARLINK-35467 can be tracked NOW for your location showing map with azimuth and elevation plus other details from your city location.







IsCatalogInMostPopularTable: catalog: 66343, numindb: 4
Update: records affected: 1



GetName: 66343 STARLINK-35467

Hit Count: updated at: Sat, 07 Feb 2026 08:24:00 GMT